This demonstration page uses our WeatherBlox Daily Observations layout. Learn more.

Left ArrowRight Arrow

39.01783, -85.05884

Hourly Observations for September 6, 2020

Temp ( °F °C ) Dew Point ( °F °C ) Humidity (%) Winds ( mph kmh ) Pressure ( in mb ) Visibility ( mi km ) Precip ( " mm )
12:52 am 00:52 Clear 65 18.3 55 12.8 70 70 SSW 5 7 30.21 1023 10 16 0.00 0.00
1:52 am 01:52 Clear 64 17.8 56 13.3 75 75 SSW 5 7 30.20 1023 10 16 0.00 0.00
2:52 am 02:52 Mostly Clear 64 17.8 56 13.3 75 75 NNW 5 7 30.21 1023 10 16 0.00 0.00
3:52 am 03:52 Partly Cloudy 60 15.6 56 13.3 86 86 S 5 7 30.19 1022 10 16 0.00 0.00
4:52 am 04:52 Clear 61 16.1 55 12.8 81 81 Calm 30.16 1021 10 16 0.00 0.00
5:52 am 05:52 Clear 59 15 55 12.8 87 87 Calm 30.17 1022 10 16 0.00 0.00
6:52 am 06:52 Clear 59 15 55 12.8 87 87 W 5 7 30.19 1022 10 16 0.00 0.00
7:52 am 07:52 Partly Cloudy 60 15.6 56 13.3 86 86 Calm 30.19 1023 10 16 0.00 0.00
8:52 am 08:52 Partly Cloudy 66 18.9 58 14.4 75 75 Calm 30.20 1023 10 16 0.00 0.00
9:52 am 09:52 Mostly Cloudy 68 20 58 14.4 70 70 Calm 30.19 1023 10 16 0.00 0.00
10:52 am 10:52 Partly Cloudy 72 22.2 59 15 64 64 S 3 6 30.19 1022 10 16 0.00 0.00
11:52 am 11:52 Partly Cloudy 76 24.4 58 14.4 54 54 Calm 30.18 1022 10 16 0.00 0.00
12:52 pm 12:52 Mostly Cloudy 79 26.1 60 15.6 52 52 W 7 11 30.19 1022 10 16 0.00 0.00
1:52 pm 13:52 Mostly Cloudy 80 26.7 60 15.6 51 51 SW 7 11 30.17 1022 10 16 0.00 0.00
2:52 pm 14:52 Mostly Cloudy 79 26.1 61 16.1 54 54 SSW 6 9 30.14 1021 10 16 0.00 0.00
3:52 pm 15:52 Mostly Cloudy 78 25.6 61 16.1 56 56 S 12 19 30.08 1019 10 16 0.00 0.00
4:52 pm 16:52 Cloudy 78 25.6 60 15.6 54 54 S 12 19 30.05 1018 10 16 0.00 0.00
5:52 pm 17:52 Mostly Cloudy 80 26.7 61 16.1 52 52 S 13 20 30.04 1017 10 16 0.00 0.00
6:52 pm 18:52 Mostly Cloudy 76 24.4 61 16.1 60 60 S 8 13 30.03 1017 10 16 0.00 0.00
7:52 pm 19:52 Mostly Cloudy 72 22.2 61 16.1 68 68 S 8 13 30.02 1017 10 16 0.00 0.00
8:52 pm 20:52 Partly Cloudy 70 21.1 61 16.1 73 73 S 7 11 30.03 1017 10 16 0.00 0.00
9:52 pm 21:52 Cloudy 69 20.6 61 16.1 76 76 S 8 13 30.03 1017 10 16 0.00 0.00
10:52 pm 22:52 Cloudy 69 20.6 60 15.6 73 73 SSW 8 13 30.02 1017 10 16 0.00 0.00
11:52 pm 23:52 Partly Cloudy 69 20.6 59 15 70 70 SSW 9 15 30.01 1016 10 16 0.00 0.00

Powered by AerisWeather